When you browse on this site, cookies collect data to enhance your experience and personalize the content and advertising you see.
Visit our Privacy Policy to learn more. By continuing to use the site, you agree to this use of cookies and data.
  • In France
  • List of Countries
  • For 7 days
  • Water Temperature
  • Satellite Maps
  • Weather Map
  • Weather Widgets
  • user-avatar
    Login

    Hourly Weather Tukay-Tamak

    Today, 19 November, Monday

    Time Temperature Precipitation Wind Pressure Humidity
    00:00 -2°C° 0 mm 3 mps 757 mmHg 77%
    01:00 -2°C° 0 mm 3 mps 757 mmHg 80%
    02:00 -2°C° 0 mm 3 mps 757 mmHg 81%
    03:00 -2°C° 0 mm 3 mps 757 mmHg 83%
    04:00 -2°C° 0 mm 2 mps 757 mmHg 82%
    05:00 -2°C° 0 mm 2 mps 758 mmHg 83%
    06:00 -2°C° 0 mm 2 mps 758 mmHg 85%
    07:00 -2°C° 0 mm 2 mps 758 mmHg 86%
    08:00 -2°C° 0.1 mm 2 mps 758 mmHg 87%
    09:00 -2°C° 0.1 mm 3 mps 758 mmHg 88%
    10:00 -1°C° 0 mm 3 mps 758 mmHg 88%
    11:00 -1°C° 0.2 mm 3 mps 758 mmHg 88%
    12:00 -1°C° 0.2 mm 3 mps 758 mmHg 89%
    13:00 -1°C° 0.2 mm 2 mps 758 mmHg 89%
    14:00 -1°C° 0.3 mm 2 mps 758 mmHg 91%
    15:00 -1°C° 0.3 mm 2 mps 758 mmHg 93%
    16:00 -1°C° 0.3 mm 2 mps 758 mmHg 94%
    17:00 -2°C° 0.2 mm 2 mps 758 mmHg 95%
    18:00 -2°C° 0.2 mm 2 mps 758 mmHg 95%
    19:00 -2°C° 0.2 mm 2 mps 758 mmHg 96%
    20:00 0°C° 0.1 mm 1 mps 758 mmHg 96%
    21:00 0°C° 0.1 mm 1 mps 758 mmHg 96%
    22:00 0°C° 0.1 mm 1 mps 758 mmHg 97%
    23:00 0°C° 0.1 mm 1 mps 758 mmHg 97%

    Tomorrow, 20 November, Tuesday

    Time Temperature Precipitation Wind Pressure Humidity
    00:00 0°C° 0.1 mm 1 mps 758 mmHg 97%
    01:00 0°C° 0.1 mm 1 mps 757 mmHg 97%
    02:00 0°C° 0.1 mm 1 mps 757 mmHg 97%
    03:00 0°C° 0.1 mm 1 mps 757 mmHg 97%
    04:00 0°C° 0.1 mm 1 mps 757 mmHg 97%
    05:00 0°C° 0.1 mm 1 mps 757 mmHg 97%
    06:00 0°C° 0.1 mm 1 mps 757 mmHg 97%
    07:00 0°C° 0.1 mm 1 mps 757 mmHg 97%
    08:00 0°C° 0.1 mm 1 mps 757 mmHg 96%
    09:00 0°C° 0.1 mm 1 mps 757 mmHg 95%
    10:00 0°C° 0.1 mm 1 mps 757 mmHg 95%
    11:00 0°C° 0 mm 1 mps 757 mmHg 94%
    12:00 +1°C° 0 mm 1 mps 757 mmHg 93%
    13:00 +1°C° 0 mm 1 mps 756 mmHg 92%
    14:00 +1°C° 0 mm 1 mps 756 mmHg 93%
    15:00 0°C° 0 mm 1 mps 756 mmHg 93%
    16:00 0°C° 0 mm 1 mps 756 mmHg 94%
    17:00 0°C° 0 mm 1 mps 755 mmHg 94%
    18:00 -2°C° 0 mm 2 mps 755 mmHg 94%
    19:00 -2°C° 0 mm 2 mps 755 mmHg 95%
    20:00 -3°C° 0 mm 2 mps 755 mmHg 94%
    21:00 -3°C° 0 mm 2 mps 754 mmHg 93%
    22:00 -4°C° 0 mm 3 mps 754 mmHg 92%
    23:00 -4°C° 0 mm 3 mps 753 mmHg 91%

    Day after tomorrow, 21 November, Wednesday

    Time Temperature Precipitation Wind Pressure Humidity
    00:00 -4°C° 0 mm 3 mps 753 mmHg 90%
    01:00 -4°C° 0 mm 3 mps 753 mmHg 89%
    02:00 -5°C° 0 mm 4 mps 752 mmHg 87%
    03:00 -5°C° 0 mm 4 mps 751 mmHg 85%
    04:00 -6°C° 0 mm 5 mps 751 mmHg 83%
    05:00 -6°C° 0 mm 5 mps 750 mmHg 84%
    06:00 -7°C° 0 mm 5 mps 749 mmHg 85%
    07:00 -7°C° 0 mm 5 mps 749 mmHg 87%
    08:00 -8°C° 0.2 mm 6 mps 748 mmHg 87%
    09:00 -8°C° 0.2 mm 6 mps 748 mmHg 88%
    10:00 -6°C° 0.2 mm 6 mps 747 mmHg 88%
    11:00 -6°C° 0.5 mm 6 mps 746 mmHg 89%
    12:00 -6°C° 0.5 mm 6 mps 745 mmHg 90%
    13:00 -6°C° 0.5 mm 6 mps 745 mmHg 90%
    14:00 -5°C° 0.3 mm 6 mps 744 mmHg 90%
    15:00 -5°C° 0.3 mm 5 mps 744 mmHg 90%
    16:00 -5°C° 0.3 mm 5 mps 743 mmHg 90%
    17:00 -5°C° 0.2 mm 6 mps 743 mmHg 89%
    18:00 -5°C° 0.2 mm 6 mps 743 mmHg 87%
    19:00 -6°C° 0.2 mm 7 mps 743 mmHg 85%
    20:00 -6°C° 0 mm 6 mps 743 mmHg 85%
    21:00 -8°C° 0 mm 6 mps 743 mmHg 86%
    22:00 -9°C° 0 mm 6 mps 743 mmHg 86%
    23:00 -8°C° 0.1 mm 5 mps 744 mmHg 84%

    22 November, Thursday

    Time Temperature Precipitation Wind Pressure Humidity
    00:00 -8°C° 0.1 mm 5 mps 744 mmHg 83%
    01:00 -8°C° 0.1 mm 5 mps 744 mmHg 82%
    02:00 -8°C° 0 mm 5 mps 744 mmHg 84%
    03:00 -10°C° 0 mm 5 mps 744 mmHg 86%
    04:00 -9°C° 0 mm 4 mps 745 mmHg 89%
    05:00 -10°C° 0 mm 4 mps 744 mmHg 89%
    06:00 -10°C° 0 mm 4 mps 744 mmHg 89%
    07:00 -11°C° 0 mm 4 mps 744 mmHg 90%
    08:00 -11°C° 0 mm 5 mps 743 mmHg 90%
    09:00 -11°C° 0 mm 5 mps 743 mmHg 90%
    10:00 -10°C° 0 mm 6 mps 743 mmHg 90%
    11:00 -10°C° 0.1 mm 6 mps 742 mmHg 89%
    12:00 -9°C° 0.1 mm 6 mps 741 mmHg 88%
    13:00 -9°C° 0.1 mm 7 mps 740 mmHg 87%
    14:00 -9°C° 0.4 mm 7 mps 740 mmHg 88%
    15:00 -8°C° 0.4 mm 7 mps 739 mmHg 89%
    16:00 -8°C° 0.4 mm 8 mps 738 mmHg 89%
    17:00 -8°C° 0.3 mm 7 mps 738 mmHg 90%
    18:00 -8°C° 0.3 mm 7 mps 737 mmHg 90%
    19:00 -7°C° 0.3 mm 7 mps 737 mmHg 90%
    20:00 -8°C° 0.1 mm 7 mps 737 mmHg 89%
    21:00 -9°C° 0.1 mm 6 mps 737 mmHg 88%
    22:00 -10°C° 0.1 mm 6 mps 737 mmHg 87%
    23:00 -11°C° 0 mm 6 mps 738 mmHg 86%

    23 November, Friday

    Time Temperature Precipitation Wind Pressure Humidity
    00:00 -11°C° 0 mm 6 mps 739 mmHg 84%
    01:00 -12°C° 0 mm 6 mps 739 mmHg 83%
    02:00 -14°C° 0 mm 6 mps 740 mmHg 82%
    03:00 -15°C° 0 mm 6 mps 741 mmHg 82%
    04:00 -14°C° 0 mm 5 mps 742 mmHg 81%
    05:00 -15°C° 0 mm 5 mps 743 mmHg 83%
    06:00 -15°C° 0 mm 5 mps 744 mmHg 85%
    07:00 -17°C° 0 mm 5 mps 745 mmHg 87%
    08:00 -17°C° 0 mm 5 mps 745 mmHg 88%
    09:00 -17°C° 0 mm 5 mps 746 mmHg 88%
    10:00 -15°C° 0 mm 4 mps 747 mmHg 89%
    11:00 -15°C° 0 mm 5 mps 748 mmHg 89%
    12:00 -14°C° 0 mm 5 mps 748 mmHg 88%
    13:00 -13°C° 0 mm 5 mps 749 mmHg 88%
    14:00 -13°C° 0 mm 5 mps 749 mmHg 88%
    15:00 -12°C° 0 mm 4 mps 750 mmHg 88%
    16:00 -12°C° 0 mm 4 mps 750 mmHg 88%
    17:00 -12°C° 0 mm 4 mps 751 mmHg 88%
    18:00 -12°C° 0 mm 4 mps 751 mmHg 89%
    19:00 -12°C° 0 mm 4 mps 752 mmHg 89%
    20:00 -14°C° 0 mm 4 mps 752 mmHg 89%
    21:00 -14°C° 0 mm 4 mps 752 mmHg 89%
    22:00 -15°C° 0 mm 4 mps 753 mmHg 90%
    23:00 -15°C° 0 mm 4 mps 753 mmHg 90%

    24 November, Saturday

    Time Temperature Precipitation Wind Pressure Humidity
    00:00 -15°C° 0 mm 5 mps 753 mmHg 90%
    01:00 -15°C° 0 mm 5 mps 753 mmHg 90%
    02:00 -14°C° 0 mm 5 mps 753 mmHg 89%
    03:00 -15°C° 0 mm 6 mps 753 mmHg 89%
    04:00 -14°C° 0 mm 6 mps 752 mmHg 88%
    05:00 -14°C° 0 mm 7 mps 752 mmHg 87%
    06:00 -13°C° 0 mm 7 mps 752 mmHg 86%
    07:00 -13°C° 0 mm 8 mps 751 mmHg 86%
    08:00 -13°C° 0 mm 8 mps 751 mmHg 84%
    09:00 -14°C° 0 mm 9 mps 750 mmHg 82%
    10:00 -14°C° 0 mm 9 mps 750 mmHg 80%
    11:00 -12°C° 0 mm 9 mps 750 mmHg 81%
    12:00 -11°C° 0 mm 9 mps 749 mmHg 81%
    13:00 -12°C° 0 mm 10 mps 748 mmHg 82%
    14:00 -10°C° 0.1 mm 9 mps 748 mmHg 82%
    15:00 -10°C° 0.1 mm 9 mps 748 mmHg 83%
    16:00 -9°C° 0.1 mm 9 mps 748 mmHg 83%
    17:00 -9°C° 0 mm 9 mps 748 mmHg 84%
    18:00 -9°C° 0 mm 9 mps 748 mmHg 84%
    19:00 -8°C° 0 mm 9 mps 748 mmHg 85%
    20:00 -8°C° 0.1 mm 9 mps 748 mmHg 86%
    21:00 -7°C° 0.1 mm 8 mps 748 mmHg 86%
    22:00 -7°C° 0.1 mm 8 mps 748 mmHg 87%
    23:00 -7°C° 0 mm 7 mps 749 mmHg 88%
    Show more